Tracking 33744 objects as of 14-Apr-2026
HD Live streaming from Space Station
objects crossing your sky now

STARLINK-36757

Track STARLINK-36757 now!
10-day predictions
STARLINK-36757 is classified as:


NORAD ID: 67728
Int'l Code: 2026-026H
Perigee: 471.9 km
Apogee: 473.2 km
Inclination: 97.3 °
Period: 93.9 minutes
Semi major axis: 6843 km
RCS: Unknown
Launch date: February 11, 2026
Source: United States (US)
Launch site: AIR FORCE WESTERN TEST RANGE (AFWTR)
Your satellite tracking list
Your tracking list is empty




NASA's NSSDC Master Catalog

Two Line Element Set (TLE):
1 67728U 26026H   26103.59160219  .00016617  00000-0  51528-3 0  9996
2 67728  97.2835 157.6839 0000961  96.3017 263.8335 15.33483429  9479
Source of the keplerian elements: AFSPC